When you browse on this site, cookies collect data to enhance your experience and personalize the content and advertising you see.
Visit our Privacy Policy to learn more. By continuing to use the site, you agree to this use of cookies and data.
  • In Hungary
  • List of Countries
  • For 7 days
  • Water Temperature
  • Satellite Maps
  • Weather Map
  • News
  • Weather Widgets
  • user-avatar
    Login

    Hourly Weather Bialka

    Today, 18 January, Friday

    Time Temperature Precipitation Wind Pressure Humidity
    00:00 +1°C° 0 mm 6 mps 742 mmHg 86%
    01:00 +1°C° 0 mm 6 mps 742 mmHg 84%
    02:00 0°C° 0 mm 7 mps 742 mmHg 83%
    03:00 0°C° 0 mm 7 mps 742 mmHg 82%
    04:00 0°C° 0 mm 7 mps 742 mmHg 81%
    05:00 -1°C° 0 mm 7 mps 743 mmHg 81%
    06:00 -1°C° 0 mm 7 mps 743 mmHg 81%
    07:00 -2°C° 0 mm 7 mps 744 mmHg 81%
    08:00 -2°C° 0.2 mm 7 mps 745 mmHg 81%
    09:00 -2°C° 0.2 mm 7 mps 746 mmHg 80%
    10:00 -2°C° 0.2 mm 7 mps 747 mmHg 79%
    11:00 -2°C° 0 mm 6 mps 748 mmHg 73%
    12:00 -2°C° 0 mm 6 mps 749 mmHg 67%
    13:00 -2°C° 0 mm 6 mps 750 mmHg 62%
    14:00 -1°C° 0 mm 5 mps 751 mmHg 65%
    15:00 -2°C° 0 mm 4 mps 752 mmHg 67%
    16:00 -2°C° 0 mm 3 mps 752 mmHg 70%
    17:00 -3°C° 0 mm 4 mps 753 mmHg 72%
    18:00 -3°C° 0 mm 4 mps 753 mmHg 74%
    19:00 -3°C° 0 mm 4 mps 754 mmHg 75%
    20:00 -3°C° 0 mm 4 mps 754 mmHg 76%
    21:00 -3°C° 0 mm 4 mps 755 mmHg 77%
    22:00 -3°C° 0 mm 4 mps 755 mmHg 78%
    23:00 -3°C° 0 mm 4 mps 755 mmHg 79%

    Tomorrow, 19 January, Saturday

    Time Temperature Precipitation Wind Pressure Humidity
    00:00 -3°C° 0 mm 4 mps 755 mmHg 80%
    01:00 -4°C° 0 mm 3 mps 756 mmHg 80%
    02:00 -3°C° 0 mm 4 mps 756 mmHg 81%
    03:00 -3°C° 0 mm 4 mps 756 mmHg 82%
    04:00 -3°C° 0 mm 4 mps 756 mmHg 83%
    05:00 -3°C° 0 mm 4 mps 756 mmHg 84%
    06:00 -4°C° 0 mm 3 mps 756 mmHg 84%
    07:00 -4°C° 0 mm 3 mps 756 mmHg 85%
    08:00 -4°C° 0 mm 3 mps 757 mmHg 83%
    09:00 -2°C° 0 mm 3 mps 757 mmHg 81%
    10:00 -2°C° 0 mm 3 mps 757 mmHg 79%
    11:00 -1°C° 0 mm 3 mps 757 mmHg 75%
    12:00 -1°C° 0 mm 3 mps 757 mmHg 72%
    13:00 0°C° 0 mm 3 mps 757 mmHg 69%
    14:00 -1°C° 0 mm 2 mps 757 mmHg 72%
    15:00 -1°C° 0 mm 2 mps 757 mmHg 75%
    16:00 -2°C° 0 mm 2 mps 757 mmHg 78%
    17:00 -2°C° 0 mm 2 mps 757 mmHg 78%
    18:00 -1°C° 0 mm 1 mps 757 mmHg 79%
    19:00 -1°C° 0 mm 1 mps 757 mmHg 80%
    20:00 -1°C° 0 mm 1 mps 757 mmHg 79%
    21:00 -1°C° 0 mm 1 mps 757 mmHg 79%
    22:00 -1°C° 0 mm 1 mps 757 mmHg 79%
    23:00 -1°C° 0 mm 1 mps 756 mmHg 79%

    Day after tomorrow, 20 January, Sunday

    Time Temperature Precipitation Wind Pressure Humidity
    00:00 -1°C° 0 mm 1 mps 756 mmHg 79%
    01:00 -1°C° 0 mm 1 mps 756 mmHg 80%
    02:00 -2°C° 0 mm 1 mps 756 mmHg 80%
    03:00 -2°C° 0 mm 1 mps 755 mmHg 80%
    04:00 -2°C° 0 mm 1 mps 755 mmHg 80%
    05:00 -2°C° 0 mm 1 mps 755 mmHg 80%
    06:00 -2°C° 0 mm 1 mps 755 mmHg 79%
    07:00 -3°C° 0 mm 0 mps 755 mmHg 79%
    08:00 -3°C° 0 mm 0 mps 755 mmHg 75%
    09:00 -2°C° 0 mm 0 mps 755 mmHg 71%
    10:00 -2°C° 0 mm 0 mps 755 mmHg 68%
    11:00 -1°C° 0 mm 0 mps 755 mmHg 64%
    12:00 -1°C° 0 mm 0 mps 755 mmHg 61%
    13:00 0°C° 0 mm 0 mps 755 mmHg 58%
    14:00 0°C° 0 mm 1 mps 755 mmHg 62%
    15:00 0°C° 0 mm 1 mps 755 mmHg 65%
    16:00 -1°C° 0 mm 1 mps 755 mmHg 69%
    17:00 -1°C° 0 mm 1 mps 755 mmHg 70%
    18:00 -1°C° 0 mm 1 mps 755 mmHg 72%
    19:00 -2°C° 0 mm 1 mps 755 mmHg 73%
    20:00 -4°C° 0 mm 2 mps 755 mmHg 74%
    21:00 -4°C° 0 mm 2 mps 756 mmHg 75%
    22:00 -4°C° 0 mm 2 mps 756 mmHg 75%
    23:00 -4°C° 0 mm 2 mps 756 mmHg 79%

    21 January, Monday

    Time Temperature Precipitation Wind Pressure Humidity
    00:00 -4°C° 0 mm 2 mps 757 mmHg 82%
    01:00 -5°C° 0 mm 3 mps 757 mmHg 85%
    02:00 -4°C° 0 mm 2 mps 757 mmHg 88%
    03:00 -4°C° 0 mm 2 mps 757 mmHg 90%
    04:00 -4°C° 0 mm 2 mps 757 mmHg 93%
    05:00 -4°C° 0 mm 2 mps 758 mmHg 93%
    06:00 -4°C° 0 mm 2 mps 758 mmHg 93%
    07:00 -1°C° 0 mm 1 mps 758 mmHg 93%
    08:00 -1°C° 0 mm 1 mps 759 mmHg 91%
    09:00 -1°C° 0 mm 1 mps 759 mmHg 89%
    10:00 0°C° 0 mm 1 mps 759 mmHg 87%
    11:00 0°C° 0 mm 1 mps 759 mmHg 85%
    12:00 +1°C° 0 mm 1 mps 759 mmHg 82%
    13:00 -1°C° 0 mm 2 mps 759 mmHg 79%
    14:00 -1°C° 0 mm 2 mps 759 mmHg 81%
    15:00 -2°C° 0 mm 2 mps 759 mmHg 83%
    16:00 0°C° 0 mm 1 mps 759 mmHg 85%
    17:00 -3°C° 0 mm 2 mps 759 mmHg 86%
    18:00 -3°C° 0 mm 2 mps 759 mmHg 87%
    19:00 -3°C° 0 mm 2 mps 759 mmHg 87%
    20:00 -3°C° 0 mm 2 mps 758 mmHg 86%
    21:00 -3°C° 0 mm 2 mps 758 mmHg 86%
    22:00 -3°C° 0 mm 2 mps 758 mmHg 85%
    23:00 -3°C° 0 mm 2 mps 758 mmHg 84%

    22 January, Tuesday

    Time Temperature Precipitation Wind Pressure Humidity
    00:00 -3°C° 0 mm 2 mps 758 mmHg 83%
    01:00 -3°C° 0 mm 2 mps 757 mmHg 83%
    02:00 -3°C° 0 mm 2 mps 757 mmHg 83%
    03:00 -3°C° 0 mm 2 mps 756 mmHg 83%
    04:00 -3°C° 0 mm 2 mps 756 mmHg 83%
    05:00 -3°C° 0 mm 2 mps 756 mmHg 83%
    06:00 -4°C° 0 mm 3 mps 755 mmHg 83%
    07:00 -4°C° 0 mm 3 mps 755 mmHg 82%
    08:00 -4°C° 0 mm 3 mps 755 mmHg 78%
    09:00 -4°C° 0 mm 3 mps 755 mmHg 74%
    10:00 -2°C° 0 mm 3 mps 755 mmHg 70%
    11:00 -2°C° 0 mm 3 mps 754 mmHg 67%
    12:00 -1°C° 0 mm 3 mps 754 mmHg 63%
    13:00 -1°C° 0 mm 3 mps 753 mmHg 60%
    14:00 -2°C° 0 mm 3 mps 753 mmHg 63%
    15:00 -2°C° 0 mm 2 mps 753 mmHg 67%
    16:00 -3°C° 0 mm 2 mps 752 mmHg 70%
    17:00 -4°C° 0 mm 3 mps 752 mmHg 72%
    18:00 -4°C° 0 mm 3 mps 752 mmHg 74%
    19:00 -4°C° 0 mm 3 mps 752 mmHg 77%
    20:00 -5°C° 0 mm 3 mps 752 mmHg 77%
    21:00 -5°C° 0 mm 3 mps 752 mmHg 78%
    22:00 -5°C° 0 mm 4 mps 752 mmHg 79%
    23:00 -5°C° 0 mm 4 mps 751 mmHg 80%

    23 January, Wednesday

    Time Temperature Precipitation Wind Pressure Humidity
    00:00 -5°C° 0 mm 4 mps 751 mmHg 80%
    01:00 -7°C° 0 mm 4 mps 751 mmHg 81%
    02:00 -7°C° 0 mm 4 mps 751 mmHg 80%
    03:00 -7°C° 0 mm 4 mps 751 mmHg 80%
    04:00 -7°C° 0 mm 4 mps 750 mmHg 79%
    05:00 -7°C° 0 mm 5 mps 750 mmHg 78%
    06:00 -8°C° 0 mm 5 mps 750 mmHg 78%
    07:00 -8°C° 0 mm 5 mps 750 mmHg 77%
    08:00 -8°C° 0 mm 5 mps 750 mmHg 75%
    09:00 -7°C° 0 mm 5 mps 750 mmHg 73%
    10:00 -7°C° 0 mm 5 mps 750 mmHg 71%
    11:00 -7°C° 0 mm 5 mps 750 mmHg 69%
    12:00 -6°C° 0 mm 5 mps 750 mmHg 67%
    13:00 -6°C° 0 mm 6 mps 749 mmHg 65%
    14:00 -6°C° 0 mm 5 mps 749 mmHg 68%
    15:00 -6°C° 0 mm 5 mps 749 mmHg 70%
    16:00 -6°C° 0 mm 5 mps 749 mmHg 72%
    17:00 -7°C° 0 mm 5 mps 749 mmHg 75%
    18:00 -8°C° 0 mm 6 mps 749 mmHg 78%
    19:00 -8°C° 0 mm 6 mps 750 mmHg 81%
    20:00 -8°C° 0 mm 6 mps 750 mmHg 80%
    21:00 -8°C° 0 mm 6 mps 750 mmHg 78%
    22:00 -8°C° 0 mm 6 mps 750 mmHg 77%
    23:00 -7°C° 0 mm 5 mps 750 mmHg 77%
    Show more